Regional Weather Roundup
Issued by NWS Little Rock, AR

Home | Current Version | Previous Version | Graphics & Text | Print | Product List | Glossary On
Versions: 1 2 3 4 5 6 7 8 9 10 11 12 13 14 15 16 17 18 19 20 21 22 23 24 25 26 27 28 29 30 31 32 33 34 35 36 37 38 39 40 41 42 43 44 45 46
000
ASUS44 KLZK 010205
RWRLZK

WEATHER ROUNDUP FOR ARKANSAS
NATIONAL WEATHER SERVICE LITTLE ROCK AR
900 PM CDT MON AUG 31 2015

NOTE: "FAIR" INDICATES FEW OR NO CLOUDS BELOW 12,000 FEET WITH NO
SIGNIFICANT WEATHER AND/OR OBSTRUCTIONS TO VISIBILITY.

ARZ001-003-010-029-010300-
NORTHWEST ARKANSAS

CITY           SKY/WX    TMP DP  RH WIND       PRES   REMARKS
FAYETTEVILLE   PTCLDY    74  71  91 N3        30.05R
FORT SMITH     PTCLDY    80  65  59 E5        30.00R
BENTONVILLE    MOCLDY    79  64  61 S6        30.05S
ROGERS         PTCLDY    79  70  74 SE5       30.06R
SILOAM SPGS    CLEAR     77  64  65 SE7       30.04R
HIGHFILL       PTCLDY    78  70  76 S5        30.05R
SPRINGDALE     CLEAR     81  68  65 SE10      30.07R
$$

ARZ004-005-016-010300-
NORTH CENTRAL ARKANSAS

CITY           SKY/WX    TMP DP  RH WIND       PRES   REMARKS
BATESVILLE     CLEAR     75  72  88 CALM      30.04S
FLIPPIN        CLEAR     77  63  61 CALM      30.04R
MTN HOME       CLEAR     75  68  78 CALM      30.05R
$$

ARZ040-041-010300-
WEST CENTRAL ARKANSAS

CITY           SKY/WX    TMP DP  RH WIND       PRES   REMARKS
MENA           PTCLDY    77  68  73 CALM      30.05R
MOUNT IDA      CLEAR     74  70  87 CALM      30.01S
$$

ARZ009-017-025-026-028-010300-
NORTHEAST ARKANSAS

CITY           SKY/WX    TMP DP  RH WIND       PRES   REMARKS
JONESBORO      CLEAR     73  71  93 E3        30.05R
NEWPORT        CLEAR     78  73  84 SE7       30.05R
WALNUT RIDGE   PTCLDY    77  70  78 SE3       30.04S
BLYTHEVILLE    CLEAR     77  71  82 SE6       30.06R
$$

ARZ022-023-033-042-044-010300-
CENTRAL ARKANSAS

CITY           SKY/WX    TMP DP  RH WIND       PRES   REMARKS
LITTLE ROCK    MOCLDY    84  69  60 S3        30.02R HX  88
N LITTLE ROCK  MOCLDY    83  70  64 SE6       30.02R HX  87
JACKSONVILLE   CLEAR     79  69  73 CALM      30.02R
SEARCY         CLEAR     79  72  79 CALM      30.04R
HOT SPRINGS    CLEAR     78  70  76 CALM      30.03R
RUSSELLVILLE   CLEAR     73  69  87 CALM      30.02R
$$

ARZ036-010300-
EAST ARKANSAS

CITY           SKY/WX    TMP DP  RH WIND       PRES   REMARKS
WEST MEMPHIS   PTCLDY    77  73  87 CALM      30.04R
$$

ARZ050-053-066-070-073-010300-
SOUTHWEST ARKANSAS

CITY           SKY/WX    TMP DP  RH WIND       PRES   REMARKS
ARKADELPHIA    FAIR      76  73  90 CALM      30.01R
CAMDEN         CLEAR     75  66  73 CALM      30.00R
TEXARKANA      CLEAR     78  66  66 CALM      30.00R
EL DORADO      CLEAR     76  61  59 CALM      30.01R
DE QUEEN       CLEAR     82  67  60 SE3       29.99R
$$

ARZ056-057-069-010300-
SOUTHEAST ARKANSAS

CITY           SKY/WX    TMP DP  RH WIND       PRES   REMARKS
PINE BLUFF     PTCLDY    77  70  79 S3        30.02R
STUTTGART      PTCLDY    84  68  58 E5        30.03R HX  87
MONTICELLO     MOCLDY    79  70  74 CALM      30.02R

$$




USA.gov is the U.S. government's official web portal to all federal, state and local government web resources and services.